User: anonymous   Login
Location: Starry Hill Observatory
(46.8582°N, 122.3590°W)
Time: 08:20:14
(UTC-07:00)
Language:

Cosmos 1300 Rocket - Orbit

View from above orbital plane
View from above orbital plane
View from above satellite
View from above satellite

Ground track
Ground track

The orbit data is extracted from the following two-line orbital elements,

1 12786U 81082B   17296.18515124  .00000120  00000-0  11275-4 0  9998
2 12786  82.4915 207.0647 0017256 187.5292 172.5667 14.84702936953809
Epoch (UTC): 23 October 2017 04:26:37
Eccentricity: 0.0017256
inclination: 82.4915°
perigee height: 602 km
apogee height: 626 km
right ascension of ascending node: 207.0647°
argument of perigee: 187.5292°
revolutions per day: 14.84702936
mean anomaly at epoch: 172.5667°
orbit number at epoch: 95380

The dashed part of the orbit path shows where the satellite is in the earth's shadow,  

DLR